Change the Weather History Date:

Tuesday, October 18, 2011

  Actual Average Record
Temperature  
Mean Temperature 70 °F -  
Max Temperature 89 °F 78 °F 89 °F (2011)
Min Temperature 52 °F 50 °F 35 °F (1999)
Cooling Degree Days 5    
Growing Degree Days 20 (Base 50)    
Moisture  
Dew Point 28 °F    
Average Humidity 24    
Maximum Humidity 47    
Minimum Humidity 8    
Precipitation  
Precipitation 0.00 in - - ()
Sea Level Pressure  
Sea Level Pressure 30.03 in    
Wind  
Wind Speed 5 mph (South)    
Max Wind Speed 10 mph    
Max Gust Speed -    
Visibility 10 miles    
Events      
Averages and records for this station are not official NWS values.
T = Trace of Precipitation, MM = Missing Value Source: NWS Daily Summary

Daily Weather History Graph

Daily Weather History Graph

Search for Another Location

Airport or City:

Trip Planner

Search our weather history database for the weather conditions in past years. The results will help you decide how hot, cold, wet, or windy it might be!

Date:

Astronomy

Oct. 18, 2011 Rise Set
Actual Time 6:59 AM PDT 6:11 PM PDT
Civil Twilight 6:33 AM PDT 6:37 PM PDT
Nautical Twilight 6:04 AM PDT 7:07 PM PDT
Astronomical Twilight 5:34 AM PDT 7:36 PM PDT
Moon 11:04 PM PDT (10/18) 12:46 PM PDT (10/18)
Length of Visible Light 12h 03m
Length of Day
11h 11m
Waning Gibbous, 64% of the Moon is Illuminated
Oct 18
Waning Gibbous
Oct 19
Last Quarter
Oct 26
New
Nov 2
First Quarter
Nov 10
Full

Hourly Weather History & Observations

Time (PDT) Temp. Dew Point Humidity Pressure Visibility Wind Dir Wind Speed Gust Speed Precip Events Conditions
12:56 AM 63.0 °F 34.0 °F 34% 30.04 in 10.0 mi SW 10.4 mph - N/A   Clear
1:56 AM 63.0 °F 34.0 °F 34% 30.06 in 10.0 mi SSW 3.5 mph - N/A   Clear
2:56 AM 59.0 °F 33.1 °F 38% 30.05 in 10.0 mi SSW 3.5 mph - N/A   Clear
3:56 AM 55.9 °F 32.0 °F 40% 30.06 in 10.0 mi South 4.6 mph - N/A   Clear
4:56 AM 55.0 °F 32.0 °F 42% 30.06 in 10.0 mi Calm Calm - N/A   Partly Cloudy
5:56 AM 53.1 °F 30.9 °F 43% 30.08 in 10.0 mi Calm Calm - N/A   Partly Cloudy
6:56 AM 52.0 °F 32.0 °F 47% 30.10 in 10.0 mi West 3.5 mph - N/A   Clear
7:56 AM 57.0 °F 33.1 °F 40% 30.11 in 10.0 mi Calm Calm - N/A   Clear
8:56 AM 66.0 °F 34.0 °F 30% 30.12 in 10.0 mi Calm Calm - N/A   Partly Cloudy
9:56 AM 75.0 °F 35.1 °F 23% 30.11 in 10.0 mi Calm Calm - N/A   Partly Cloudy
10:56 AM 80.1 °F 34.0 °F 19% 30.09 in 10.0 mi South 4.6 mph - N/A   Partly Cloudy
11:56 AM 82.0 °F 33.1 °F 17% 30.07 in 10.0 mi South 4.6 mph - N/A   Partly Cloudy
12:56 PM 84.9 °F 30.9 °F 14% 30.04 in 10.0 mi East 9.2 mph - N/A   Partly Cloudy
1:56 PM 87.1 °F 30.0 °F 13% 30.01 in 10.0 mi Variable 6.9 mph - N/A   Partly Cloudy
2:56 PM 88.0 °F 28.9 °F 12% 29.99 in 10.0 mi Variable 3.5 mph - N/A   Partly Cloudy
3:56 PM 88.0 °F 24.1 °F 10% 29.97 in 10.0 mi Variable 5.8 mph - N/A   Clear
4:56 PM 88.0 °F 19.9 °F 8% 29.96 in 10.0 mi East 6.9 mph - N/A   Partly Cloudy
5:56 PM 84.0 °F 19.9 °F 9% 29.95 in 10.0 mi ESE 4.6 mph - N/A   Partly Cloudy
6:56 PM 75.0 °F 19.9 °F 13% 29.96 in 10.0 mi ESE 5.8 mph - N/A   Partly Cloudy
7:56 PM 66.9 °F 19.0 °F 16% 29.98 in 10.0 mi SW 6.9 mph - N/A   Partly Cloudy
8:56 PM 63.0 °F 19.0 °F 18% 29.96 in 10.0 mi SW 6.9 mph - N/A   Clear
9:56 PM 62.1 °F 21.0 °F 21% 29.95 in 10.0 mi SSW 9.2 mph - N/A   Clear
10:56 PM 64.0 °F 21.9 °F 20% 29.95 in 10.0 mi SSW 10.4 mph - N/A   Clear
11:56 PM 59.0 °F 21.0 °F 23% 29.94 in 10.0 mi SSW 4.6 mph - N/A   Clear